Regional Weather Roundup
Issued by NWS Newport/Morehead, NC

Current Version | Previous Version | Text Only | Print | Product List | Glossary Off
Versions: 1 2 3 4 5 6 7 8 9 10 11 12 13 14 15 16 17 18 19 20 21 22 23 24 25 26 27 28 29 30 31 32 33 34 35 36 37 38 39 40 41 42 43 44 45 46 47 48 49 50
000 ASUS42 KMHX 270013 RWRMHX WEATHER ROUNDUP FOR EASTERN NORTH CAROLINA NATIONAL WEATHER SERVICE NEWPORT/MOREHEAD CITY NC 800 PM EDT TUE MAY 26 2015 NOTE: "FAIR" INDICATES FEW OR NO CLOUDS BELOW 12,000 FEET WITH NO SIGNIFICANT WEATHER AND/OR OBSTRUCTIONS TO VISIBILITY NCZ015>017-031-032-045>047-102-103-270100- NORTH COAST CITY SKY/WX TMP DP RH WIND PRES REMARKS EDENTON PTCLDY 76 67 74 S14G22 30.24R ELIZABETH CITY CLEAR 75 65 70 S10G20 30.24R KITTY HAWK CLEAR 74 65 72 S7G18 30.25R MANTEO CLEAR 74 66 75 S20 30.26S $$ NCZ045>047-081-094-103-104-270100- CENTRAL COAST CITY SKY/WX TMP DP RH WIND PRES REMARKS FRISCO CLEAR 74 62 66 S17 30.27R SWANQUARTER N/A 75 N/A N/A S12G23 30.24R $$ NCZ095-097-098-100-101-270100- SOUTHERN COAST CITY SKY/WX TMP DP RH WIND PRES REMARKS BEAUFORT PTCLDY 74 66 76 S14 30.27S CEDAR ISLAND N/A 75 N/A N/A S8G21 30.30S JACKSONVILLE CLOUDY 76 67 73 S9 30.25R PINEY ISLAND PTCLDY N/A N/A N/A S12 30.26S WILMINGTON CLOUDY 77 69 76 S12G21 30.25R $$ NCZ011>013-027>030-043-044-078>080-089-090>093-098-270100- COASTAL PLAIN CITY SKY/WX TMP DP RH WIND PRES REMARKS AHOSKIE PTCLDY 78 69 73 SE8 30.21R CLINTON MOCLDY 77 72 85 SE6 30.24R ELIZABETHTOWN PTCLDY 79 69 70 S10 30.23R GOLDSBORO PTCLDY 78 70 76 S8 30.21R GREENVILLE MOCLDY 79 70 73 S13 30.24R HAVELOCK MOCLDY 75 66 73 S7 30.27S KENANSVILLE MOCLDY 75 68 78 SE5 30.25R KINSTON PTCLDY 77 68 73 S15 30.24R NEW BERN PTCLDY 76 66 71 S10 30.27R RICHLANDS PTCLDY 75 66 73 S12 30.26R ROCKY MOUNT CLEAR 80 69 69 S8G18 30.21R WASHINGTON PTCLDY 76 68 74 S10 30.24R WHITEVILLE CLOUDY 78 69 73 SE8 30.24R $$ AMZ130-135-150-152-154-156-158-170-250-252-270-ANZ085-086-088-633-658-670-270100- MARINE OBSERVATIONS STATION/POSITION TIME TEMP WIND PRES WAVE SWELL AIR SEA DIR/SP/G HT/PER HT/PER (UTC) (F) (DEG/KT/KT) (MB) (FT/S) (FT/S) CHESAPEAKE LIGHT 0000 69 170/ 26/ 28 1023.3 64 E VA BEACH 2350 67 64 170/ 10/ 12 1024.5 3/ 5 2/ 5 DUCK 2300 75 61 170/ 22/ 25 1022.6 2 E DUCK 2311 63 N/A 3/ 6 OREGON INLET 2300 75 79 160/ 13/ 19 1024.6 13E OREGON INLT 0000 68 N/A 3/ 6 HATTERAS CG 2300 75 76 160/ 13/ 17 1024.4 DIAMOND BUOY 2350 75 77 160/ 16/ 19 1025.0 3/ 6 2/ 8 CAPE LOOKOUT 0000 74 170/ 15/ 16 1024.7 BEAUFORT LAB 2300 75 76 170/ 12/ 15 1024.0 27 SE WRIGHTSVLE 2300 73 76 170/ 12/ 14 N/A 5 SE WRIGHTSVLE 2308 76 77 160/ 16/ 19 1024.1 225 S CAPE HAT 2350 74 74 120/ 14/ 17 1025.7 4/ 6 2/ 7 41 SE CHARLESTON 2350 78 76 150/ 14/ 16 1023.5 4/ 6 2/12 $$

USA.gov is the U.S. government's official web portal to all federal, state and local government web resources and services.